Weather in Ladispoli

Italy     41°57′09″N   12°04′30″E
temp.,
°C
wind,
m/s
gust,
m/s
humid.,
%
clouds,
%
prec.,
mm/h
press.,
hPa
HPBL,
m
15 may, sat
sat1523:00+10ene4891100 2.1 1010323
02:00+11ne248962 2.1 1010145
05:00+9n23935 0.0 101086
08:00+12nnw12845 0.0 1012171
11:00+17w45595 0.0 10131004
14:00+18w556097 0.0 1013820
17:00+17w4560100 0.0 1013657
20:00+15s2276100 0.0 101392
16 may, sun
sun1623:00+14wsw2390100 0.0 1014129
02:00+14ssw2387100 0.0 1013186
05:00+15sse3687100 0.0 1012301
08:00+15ese4784100 0.0 1013381
11:00+18sse7870100 0.0 1013783
14:00+20sse776675 0.0 1013741
17:00+20sse686688 0.0 1011595
20:00+17se6984100 0.0 1011425
17 may, mon
mon1723:00+16se51188100 0.0 1011410
02:00+16sse599241 0.0 1011344
05:00+16se589392 0.1 1010376
08:00+17sse468752 0.1 1011580
11:00+19sse557213 0.0 1012684
14:00+20s3368100 0.0 1012596
17:00+18s3369100 0.0 1011408
20:00+16sse23836 0.0 101279
18 may, tue
tue1823:00+14sse12905 0.0 1013117
02:00+13e1188100 0.0 1013108
05:00+11ene359525 0.0 1013117
08:00+15e477899 0.0 1014372
11:00+20se556112 0.0 1013834
14:00+19sw44629 0.0 1013657
17:00+19w46575 0.0 1013784
20:00+17nnw412460 0.0 1014497
19 may, wed
wed1923:00+15nnw39525 0.0 1016326
02:00+12nne22700 0.0 101731
05:00+12nne22740 0.0 101747
08:00+16ene235726 0.0 1019255
11:00+20sw2243100 0.0 10191019
14:00+20sw534657 0.0 1018704
17:00+19ssw335795 0.0 1017526
20:00+16ene22715 0.0 101745